Weather History for Minot AFB, ND

Change the Weather History Date:

Saturday, August 17, 2013

  Actual Average Record
Temperature  
Mean Temperature 75 °F -  
Max Temperature 89 °F 79 °F 98 °F (1996)
Min Temperature 62 °F 53 °F 41 °F (2007)
Cooling Degree Days 10    
Growing Degree Days 25 (Base 50)    
Moisture  
Dew Point 62 °F    
Average Humidity 67    
Maximum Humidity 87    
Minimum Humidity 42    
Precipitation  
Precipitation 0.00 in - - ()
Sea Level Pressure  
Sea Level Pressure 29.86 in    
Wind  
Wind Speed 9 mph (South)    
Max Wind Speed 13 mph    
Max Gust Speed -    
Visibility 10 miles    
Events      
Averages and records for this station are not official NWS values.
T = Trace of Precipitation, MM = Missing Value Source: NWS Daily Summary

Daily Weather History Graph

Daily Weather History Graph

Search for Another Location

Airport:

Trip Planner

Search our weather history database for the weather conditions in past years. The results will help you decide how hot, cold, wet, or windy it might be!

Date:

Astronomy

Aug. 17, 2013 Rise Set
Actual Time 6:42 AM CDT 8:55 PM CDT
Civil Twilight 6:08 AM CDT 9:29 PM CDT
Nautical Twilight 5:25 AM CDT 10:12 PM CDT
Astronomical Twilight 4:36 AM CDT 10:59 PM CDT
Moon 6:20 PM CDT (8/17) 2:38 AM CDT (8/17)
Length of Visible Light 15h 21m
Length of Day
14h 13m
Waxing Gibbous, 84% of the Moon is Illuminated
Aug 17
Waxing Gibbous
Aug 20
Full
Aug 28
Last Quarter
Sep 5
New
Sep 12
First Quarter

Hourly Weather History & Observations

Time (CDT) Temp. Heat Index Dew Point Humidity Pressure Visibility Wind Dir Wind Speed Gust Speed Precip Events Conditions
12:58 AM 65.7 °F - 57.9 °F 76% 29.92 in 10.0 mi South 8.1 mph - N/A   Clear
1:58 AM 66.9 °F - 57.4 °F 71% 29.91 in 10.0 mi South 10.4 mph - N/A   Clear
2:58 AM 65.5 °F - 57.6 °F 76% 29.91 in 10.0 mi SSW 11.5 mph - N/A   Clear
3:58 AM 64.6 °F - 57.6 °F 78% 29.91 in 10.0 mi SSW 12.7 mph - N/A   Clear
4:58 AM 64.6 °F - 58.5 °F 80% 29.90 in 10.0 mi South 10.4 mph - N/A   Clear
5:58 AM 63.5 °F - 58.5 °F 84% 29.89 in 10.0 mi SSW 8.1 mph - N/A   Clear
6:58 AM 62.8 °F - 58.6 °F 86% 29.88 in 10.0 mi South 8.1 mph - N/A   Clear
7:58 AM 64.9 °F - 59.5 °F 83% 29.88 in 10.0 mi South 8.1 mph - N/A   Clear
8:58 AM 68.0 °F - 60.8 °F 78% 29.88 in 10.0 mi SW 10.4 mph - N/A   Clear
9:58 AM 73.9 °F - 62.6 °F 68% 29.89 in 10.0 mi Variable 1.2 mph - N/A   Clear
10:58 AM 76.8 °F - 63.3 °F 63% 29.88 in 10.0 mi SSW 4.6 mph - N/A   Clear
11:58 AM 80.6 °F 82.2 °F 64.0 °F 57% 29.88 in 10.0 mi SSW 5.8 mph - N/A   Clear
12:58 PM 83.7 °F 84.9 °F 63.7 °F 51% 29.88 in 10.0 mi SSW 6.9 mph - N/A   Clear
1:58 PM 87.3 °F 87.5 °F 61.9 °F 42% 29.85 in 10.0 mi SSW 4.6 mph - N/A   Clear
2:58 PM 88.3 °F 89.2 °F 63.1 °F 43% 29.84 in 10.0 mi South 10.4 mph - N/A   Clear
3:58 PM 88.7 °F 89.4 °F 63.0 °F 42% 29.83 in 10.0 mi South 11.5 mph - N/A   Clear
4:58 PM 88.5 °F 90.1 °F 64.4 °F 45% 29.83 in 10.0 mi SSW 12.7 mph - N/A   Clear
5:58 PM 87.4 °F 89.8 °F 66.2 °F 49% 29.83 in 10.0 mi South 10.4 mph - N/A   Clear
6:58 PM 85.3 °F 87.9 °F 67.1 °F 54% 29.83 in 10.0 mi SSE 12.7 mph - N/A   Clear
7:58 PM 80.2 °F 83.0 °F 68.2 °F 67% 29.82 in 10.0 mi SSE 8.1 mph - N/A   Clear
8:58 PM 76.3 °F - 67.3 °F 74% 29.83 in 10.0 mi SSE 5.8 mph - N/A   Clear
9:58 PM 74.1 °F - 65.5 °F 74% 29.82 in 10.0 mi ESE 6.9 mph - N/A   Clear
10:58 PM 71.2 °F - 64.0 °F 78% 29.81 in 10.0 mi ESE 8.1 mph - N/A   Clear
11:58 PM 67.8 °F - 63.7 °F 87% 29.78 in 10.0 mi SE 8.1 mph - N/A   Clear